Regional Weather Roundup
Issued by NWS

Current Version | Previous Version | Text Only | Print | Product List | Glossary On
Versions: 1 2 3 4 5 6 7 8 9 10 11 12 13 14 15 16 17 18 19 20 21 22 23 24 25 26
000
ASUS42 KTBW 162210
RWRFL
FLORIDA REGIONAL WEATHER ROUNDUP
NATIONAL WEATHER SERVICE TAMPA BAY RUSKIN FL
600 PM EDT WED APR 16 2014

NOTE: "FAIR" INDICATES FEW OR NO CLOUDS BELOW 12,000 FEET WITH NO
SIGNIFICANT WEATHER AND/OR OBSTRUCTIONS TO VISIBILITY.


FLZ001>010-012>015-112-114-115-162300-
PANHANDLE FLORIDA

CITY           SKY/WX    TMP DP  RH WIND       PRES   REMARKS
PENSACOLA      SUNNY     66  39  37 S9        30.12F
PENSACOLA NAS  SUNNY     62  44  51 SE8       30.13S
MILTON NAS     MOSUNNY   68  38  33 VRB5      30.12F
CRESTVIEW      SUNNY     69  39  33 E7        30.14S
DUKE FIELD     MOSUNNY   69  39  33 NE6       30.13R
VALPARAISO     MOSUNNY   67  45  44 SE10      30.13R
MARY ESTHER    SUNNY     65  43  45 S13       30.12R
TRI COUNTY     FAIR      65  39  38 E5        30.16R
PANAMA CITY    FAIR      70  44  39 NE8       30.12S
TYNDALL AFB    SUNNY     66  57  72 SW13      30.12S
APALACHICOLA   SUNNY     68  50  52 E15       30.12S

STATION/POSITION SKY/WX   TEMP    WIND        PRES    WAVE   SWELL
                          AIR SEA DIR/SP/G            HT/PER HT/PER
                          (F)     (DEG/KT/KT) (MB)    (FT/S) (FT/S)
30.1N   87.6W              58 66  130/ 12/ 14 1020.6F   2/ 5   2/ 6
29.2N   88.2W              58 70   70/ 10/ 14 1020.6F
28.8N   86.0W              61 69   70/ 16/ 17 1020.0F   5/ 6
PANAMA CITY BEAC           68 67   50/  7/ 11 1019.7R
CAPE SAN BLAS    NOT AVBL
TOWER C                    62      50/ 18/ 20 1019.7F
28.5N   84.5W              65 69   70/ 17/ 21 1018.8F   5/ 5

$$
FLZ011-016>038-118-127-128-134-139-239-162300-
NORTH FLORIDA

CITY           SKY/WX    TMP DP  RH WIND       PRES   REMARKS
MARIANNA       SUNNY     65  39  38 NE13      30.15S
TALLAHASSEE    SUNNY     70  42  36 E10       30.14S
PERRY          SUNNY     64  43  45 E7G20     30.16R
CROSS CITY       N/A     70  50  49 VRB7G18   30.13R
GAINESVILLE    CLOUDY    64  51  62 NE20      30.17R
MAYPORT NAS    CLOUDY    60  49  66 NE22G29   30.21S
JACKSONVILLE   CLOUDY    59  49  69 NE21G26   30.22S
JAX NAS        CLOUDY    62  50  64 NE23G29   30.21S
JAX CRAIG      CLOUDY    61  48  62 NE13G22   30.21S
JAX CECIL      CLOUDY    59  48  67 NE16G23   30.21S
FERNANDINA BEA MOCLDY    61  46  59 NE17G24   30.21S
ST AUGUSTINE   CLOUDY    61  53  75 NE22G30   30.20S

STATION/POSITION SKY/WX   TEMP    WIND        PRES    WAVE   SWELL
                          AIR SEA DIR/SP/G            HT/PER HT/PER
                          (F)     (DEG/KT/KT) (MB)    (FT/S) (FT/S)
SHELL POINT                68      70/  5/  9 1019.2F
KEATON BEACH               65      50/ 12/ 16 1020.5R
CEDAR KEY                  69      70/ 18/ 20 1019.9R
FERNANDINA                 59 66   40/ 12/ 18 1022.9F
30.7N   81.3W                 65                N/A     7/ 6
MAYPORT                    59 67   50/ 20/ 25   N/A
31.4N   80.9W              55 63   50/ 23/ 27 1024.2S   7/ 7
ST AUGUSTINE               61      30/ 25/ 28 1022.5S

$$
FLZ040-043>046-052-053-057-058-063-144-162300-
INTERIOR CENTRAL FLORIDA

CITY           SKY/WX    TMP DP  RH WIND       PRES   REMARKS
OCALA          MOSUNNY   68  52  56 NE12G18   30.14R
THE VILLAGES     N/A     68  55  64 NE16G22   30.12S
LEESBURG       PTSUNNY   71  55  56 NE16G24   30.12S
SANFORD        CLOUDY    69  58  67 NE16      30.12R
ORLANDO EXEC   CLOUDY    71  57  61 NE15G22   30.10S
ORLANDO INTL   PTSUNNY   73  57  57 NE17      30.09S
KISSIMMEE      PTSUNNY   73  59  60 NE17G23   30.08S
WINTER HAVEN   MOSUNNY   76  59  55 E16       30.07S
BARTOW         FAIR      75  57  53 NE15      30.06F
OKEECHOBEE     CLOUDY    73  63  68 NE15      30.05R

$$
FLZ041-047-054-059-064-141-147-162300-
EAST CENTRAL FLORIDA

CITY           SKY/WX    TMP DP  RH WIND       PRES   REMARKS
ORMOND BEACH   MOSUNNY   64  57  77 N20G28    30.16R
DAYTONA BEACH  NOT AVBL
NEW SMYRNA BEA PTSUNNY   68  59  73 N20G35    30.14R
JFK SPACE CTR  MOSUNNY   72  56  57 NE12      30.10S
TITUSVILLE     PTSUNNY   75  55  50 NE14G23   30.10S
CAPE CANAVERAL MOSUNNY   72  58  60 NE8       30.09S
PATRICK AFB    PTSUNNY   73  60  63 NE18      30.09R
MELBOURNE      CLOUDY    72  58  61 NE17G26   30.09R
VERO BEACH     CLOUDY    72  63  73 NE17G24   30.07R
FT PIERCE      CLOUDY    73  62  68 NE12G18   30.06S
STUART         CLOUDY    72  66  83 NE18G25   30.05F

STATION/POSITION SKY/WX   TEMP    WIND        PRES    WAVE   SWELL
                          AIR SEA DIR/SP/G            HT/PER HT/PER
                          (F)     (DEG/KT/KT) (MB)    (FT/S) (FT/S)
28.5N   80.2W              71 74   40/ 16/ 19 1018.9R
28.9N   78.5W              71 76   40/ 19/ 25 1018.7R   9/ 8   5/ 9
TRIDENT PIER               74 74   30/ 11/ 17 1018.4F
28.4N   80.5W                 74                N/A     3/ 8
27.6N   80.2W                 73                N/A     5/ 5

$$
FLZ050-056-061-142-242-148-248-149-249-151-251-155-255-
160-260-162300-
WEST CENTRAL FLORIDA

CITY           SKY/WX    TMP DP  RH WIND       PRES   REMARKS
CRYSTAL RIVER  FAIR      72  52  49 NE15G22   30.09S
INVERNESS      FAIR      72  54  53 NE12G18   30.11R HAZE
BROOKSVILLE    MOSUNNY   74  54  49 NE15G23   30.08R
ZEPHYRHILLS    FAIR      75  54  46 NE15G23   30.07S
CLEARWATER     SUNNY     77  53  43 E10       30.05R
TAMPA INTL     MOSUNNY   78  53  41 E10G18    30.05S
TAMPA EXEC     MOSUNNY   81  52  36 E9G17     30.05S
PLANT CITY     PTSUNNY   79  54  41 E12G21    30.07S
MACDILL AFB    SUNNY     77  57  49 E12       30.05R
PETER O KNIGHT MOSUNNY   79  55  44 E12G18    30.05R
ST PETERSBURG  SUNNY     76  61  59 E13       30.04R
SARASOTA       MOSUNNY   77  59  53 E9        30.02S
VENICE         FAIR      77  61  57 E13       30.03S

STATION/POSITION SKY/WX   TEMP    WIND        PRES    WAVE   SWELL
                          AIR SEA DIR/SP/G            HT/PER HT/PER
                          (F)     (DEG/KT/KT) (MB)    (FT/S) (FT/S)
CEDAR KEY                  69      70/ 18/ 20 1019.9R
28.5N   84.5W              65 69   70/ 17/ 21 1018.8F   5/ 5
27.3N   84.3W                 73                N/A     6/ 7
CLEARWATER BEACH           76 72   90/  8/ 13 1016.9R
MIDDLE TAMPA BAY           74      90/ 11/ 14 1017.2S
VENICE                     75 75  100/ 10/ 12 1016.2F

$$
FLZ066-069-070-075>078-162-262-165-265-162300-
SOUTHWEST FLORIDA AND KEYS

CITY           SKY/WX    TMP DP  RH WIND       PRES   REMARKS
PUNTA GORDA    SUNNY     78  62  57 NE10      30.04S
FT MYERS       SUNNY     78  62  57 E10       30.01S
SOUTHWEST INTL MOSUNNY   78  63  59 E15       30.02S
NAPLES         MOSUNNY   80  68  66 NE10      30.00S
MARATHON       PTSUNNY   82  73  74 E13       29.98S
KEY WEST NAS   CLOUDY    80  71  74 N10       29.99S
KEY WEST INTL  CLOUDY    79  71  76 N9        29.99F

STATION/POSITION SKY/WX   TEMP    WIND        PRES    WAVE   SWELL
                          AIR SEA DIR/SP/G            HT/PER HT/PER
                          (F)     (DEG/KT/KT) (MB)    (FT/S) (FT/S)
VENICE                     75 75  100/ 10/ 12 1016.2F
NAPLES                     77 77   60/  7/ 10 1016.1R
26.0N   85.6W              67 80   30/ 12/ 16 1017.7R   5/ 8   5/ 8
DRY TORTUGAS     NOT AVBL
NW FL BAY                  81     130/  7/  9 1015.3F
SOMBRERO KEY               78      80/ 12/ 13 1015.8S
LONG KEY                   79 82  100/ 14/ 15 1016.0F
MOLASSES REEF              77 78   70/ 16/ 17 1015.3S

$$
FLZ067-068-071>074-168-172>174-162300-
SOUTHEAST FLORIDA

CITY           SKY/WX    TMP DP  RH WIND       PRES   REMARKS
W PALM BEACH   LGT RAIN  74  70  87 NE14      30.02R
FT LAUDER-EXEC CLOUDY    77  69  76 NE14      30.01R
FT LAUDERDALE  CLOUDY    78  68  71 NE13      30.00R
POMPANO BEACH  CLOUDY    78  68  71 NE14      30.02R
PEMBROKE PINES CLOUDY    78  68  71 NE14      30.02R
OPA LOCKA      PTSUNNY   78  67  68 E15       30.01R
MIAMI          PTSUNNY   79  68  69 NE12      30.00S
WEST KENDALL   CLOUDY    82  68  62 E13       29.99S
HOMESTEAD      MOSUNNY   79  71  74 E15       29.99S

STATION/POSITION SKY/WX   TEMP    WIND        PRES    WAVE   SWELL
                          AIR SEA DIR/SP/G            HT/PER HT/PER
                          (F)     (DEG/KT/KT) (MB)    (FT/S) (FT/S)
PORT EVERGLADES            77      30/  8/ 17 1016.3
VIRGINIA KEY               78 81   50/  8/ 14 1016.0S
LAKE WORTH                 75 76   20/ 14/ 15 1016.2R
FOWEY ROCKS                76 79   40/ 17/ 17 1016.0R
SETTLEMENT POINT           75      50/ 16/ 19 1017.1R

$$




USA.gov is the U.S. government's official web portal to all federal, state and local government web resources and services.